Location: �quirre
(50.4736°N, 2.2351°E)
Time: 17:29:52
(UTC+00:00)

Cosmos 2279 Rocket - Pass Details

Date: 07 August 2020
Orbit: 965 x 978 km, 82.9° (Epoch: 24 September)

Event Time Altitude Azimuth Distance (km) Brightness Sun altitude
Exits shadow 01:44:43 25° 172° (S) 1,835 5.0 -19.1°
Maximum altitude 01:48:26 69° 95° (E) 1,033 4.2 -18.8°
Drops below altitude 10° 01:54:37 10° 14° (NNE) 2,720 7.5 -18.4°
Sets 01:57:08 0° 12° (NNE) 3,673 8.4 -18.2°
